Starlink 34117

operational
NORAD ID: 64040 Int'l Des: 2025-102 Owner: SPXS Country: US Constellation: starlink
LEOCIRCULAR

Über Starlink 34117

Beschreibung wird geladen...

Live-Position

3D-Globus wird geladen...

Nächste Überflüge

Höhenverlauf

Altitude vs Time

uPlot chart will show altitude changes over time

Zweizeiliger Elementsatz

1 64040U 25102U 26095.29084965 -.00000133 00000-0 -33713-5 0 9990
2 64040 70.0023 47.5025 0002308 249.1554 110.9358 14.98340014 49873
Epoch: 5. Apr. 2026 • Age: 14 hours

Aktueller Status

Höhe 574.8 km
Geschwindigkeit 7.57 km/s
Subsatellitenpunkt 2.87°N, 108.37°W
Startdatum 16. Mai 2025
Alter 0.8 years
Typ internet

Technische Details

Klassifizierung Payload
Masse 575.00 kg
Trockenmasse 530.00 kg
Gesamtmasse 575.00 kg
Länge 0.30 m
Durchmesser 4.10 m
Spannweite 29.00 m
Form Box + pan
Hersteller SPXS
Bus-Typ Starlink V2MO
Phasenstatus In Orbit
Besitzer/Staat SPXS/US

Große Konstellationen

Loading constellations...